Change the Weather History Date:

Monday, November 14, 2011

  Actual Average Record
Temperature  
Mean Temperature 46 °F 31 °F  
Max Temperature 48 °F 37 °F 54 °F (2006)
Min Temperature 43 °F 25 °F 8 °F (1996)
Degree Days  
Heating Degree Days 19    
Month to date heating degree days 348  
Since 1 July heating degree days 1364  
Cooling Degree Days 0    
Month to date cooling degree days 0  
Year to date cooling degree days 87  
Moisture  
Dew Point 44 °F    
Average Humidity 95    
Maximum Humidity 100    
Minimum Humidity 83    
Precipitation  
Precipitation 0.04 in 0.10 in 1.49 in (2006)
Month to date precipitation 1.28 1.29  
Year to date precipitation 38.58 29.41  
Sea Level Pressure  
Sea Level Pressure 29.66 in    
Wind  
Wind Speed 8 mph (SSE)    
Max Wind Speed 15 mph    
Max Gust Speed 20 mph    
Visibility 6 miles    
Events Rain    
T = Trace of Precipitation, MM = Missing Value Source: NWS Daily Summary

Daily Weather History Graph

Daily Weather History Graph

Search for Another Location

Airport or City:

Trip Planner

Search our weather history database for the weather conditions in past years. The results will help you decide how hot, cold, wet, or windy it might be!

Date:

Astronomy

Nov. 14, 2011 Rise Set
Actual Time 6:35 AM EST 3:59 PM EST
Civil Twilight 6:02 AM EST 4:32 PM EST
Nautical Twilight 5:25 AM EST 5:09 PM EST
Astronomical Twilight 4:49 AM EST 5:45 PM EST
Moon 6:57 PM EST (11/14) 9:57 AM EST (11/14)
Length of Visible Light 10h 30m
Length of Day
9h 23m
Waning Gibbous, 87% of the Moon is Illuminated
Nov 14
Waning Gibbous
Nov 18
Last Quarter
Nov 25
New
Dec 2
First Quarter
Dec 10
Full

Hourly Weather History & Observations

Time (EST) Temp. Windchill Dew Point Humidity Pressure Visibility Wind Dir Wind Speed Gust Speed Precip Events Conditions
12:53 AM 43.0 °F 38.2 °F 41.0 °F 93% 29.79 in 7.0 mi SSE 8.1 mph - N/A   Overcast
1:06 AM 42.8 °F 38.0 °F 41.0 °F 93% 29.78 in 7.0 mi SSE 8.1 mph - N/A   Overcast
1:16 AM 42.8 °F 37.5 °F 41.0 °F 93% 29.77 in 7.0 mi SSE 9.2 mph - N/A   Overcast
1:53 AM 43.0 °F 37.7 °F 42.1 °F 97% 29.77 in 7.0 mi SSE 9.2 mph - N/A   Overcast
2:53 AM 43.0 °F 38.2 °F 42.1 °F 97% 29.75 in 6.0 mi SSE 8.1 mph - N/A   Overcast
3:00 AM 42.8 °F 38.0 °F 42.8 °F 100% 29.73 in 6.0 mi SSE 8.1 mph - N/A   Overcast
3:17 AM 42.8 °F 37.0 °F 42.8 °F 100% 29.73 in 6.0 mi SSE 10.4 mph - N/A   Overcast
3:53 AM 44.1 °F 38.1 °F 43.0 °F 96% 29.74 in 6.0 mi SSE 11.5 mph - N/A   Overcast
4:53 AM 44.6 °F 40.2 °F 42.8 °F 93% 29.71 in 6.0 mi SE 8.1 mph - N/A   Overcast
5:53 AM 44.1 °F 39.0 °F 43.0 °F 96% 29.74 in 6.0 mi SSE 9.2 mph - N/A   Overcast
6:53 AM 44.1 °F 38.6 °F 43.0 °F 96% 29.72 in 4.0 mi SSE 10.4 mph - N/A   Overcast
7:53 AM 44.1 °F 38.6 °F 43.0 °F 96% 29.70 in 4.0 mi SSE 10.4 mph - N/A   Overcast
8:53 AM 46.0 °F 40.6 °F 44.1 °F 93% 29.67 in 5.0 mi SSE 11.5 mph - N/A   Overcast
9:43 AM 46.4 °F 40.7 °F 42.8 °F 87% 29.65 in 6.0 mi SSE 12.7 mph - N/A   Mostly Cloudy
9:53 AM 46.0 °F 40.2 °F 43.0 °F 89% 29.66 in 6.0 mi SSE 12.7 mph - N/A   Overcast
10:06 AM 46.4 °F 41.1 °F 42.8 °F 87% 29.65 in 7.0 mi South 11.5 mph 17.3 mph N/A   Overcast
10:53 AM 46.9 °F - 42.1 °F 83% 29.63 in 7.0 mi SSE 11.5 mph - N/A   Overcast
11:39 AM 46.4 °F 43.5 °F 44.6 °F 93% 29.61 in 2.0 mi South 5.8 mph - 0.02 in Rain Light Rain
11:53 AM 46.0 °F 43.1 °F 45.0 °F 96% 29.62 in 4.0 mi SE 5.8 mph - 0.02 in Rain Light Rain
12:53 PM 46.0 °F 43.1 °F 46.0 °F 100% 29.61 in 2.0 mi SE 5.8 mph - 0.02 in Rain Light Rain
1:04 PM 46.4 °F 42.9 °F 44.6 °F 93% 29.59 in 1.8 mi SE 6.9 mph - 0.00 in Rain Light Rain
1:13 PM 46.4 °F 42.9 °F 46.4 °F 100% 29.59 in 1.5 mi SE 6.9 mph - 0.00 in   Overcast
1:24 PM 46.4 °F 44.3 °F 46.4 °F 100% 29.59 in 2.0 mi SE 4.6 mph - 0.00 in Rain Light Rain
1:36 PM 46.4 °F 45.2 °F 46.4 °F 100% 29.59 in 3.0 mi ESE 3.5 mph - 0.00 in Rain Light Rain
1:53 PM 46.9 °F - 46.0 °F 97% 29.60 in 5.0 mi SSE 5.8 mph - 0.00 in   Overcast
2:53 PM 48.0 °F - 46.0 °F 93% 29.59 in 7.0 mi South 9.2 mph - N/A   Mostly Cloudy
3:53 PM 46.9 °F - 46.0 °F 97% 29.60 in 6.0 mi South 5.8 mph - N/A   Clear
4:53 PM 46.9 °F - 45.0 °F 93% 29.60 in 8.0 mi SSE 5.8 mph - N/A   Clear
5:53 PM 46.0 °F 42.5 °F 45.0 °F 96% 29.61 in 8.0 mi South 6.9 mph - N/A   Clear
6:53 PM 45.0 °F 41.8 °F 44.1 °F 97% 29.60 in 7.0 mi South 5.8 mph - N/A   Clear
7:53 PM 44.6 °F 42.2 °F 44.6 °F 100% 29.61 in 8.0 mi South 4.6 mph - N/A   Scattered Clouds
8:53 PM 45.0 °F 41.8 °F 43.0 °F 93% 29.62 in 8.0 mi South 5.8 mph - N/A   Partly Cloudy
9:53 PM 45.0 °F - 43.0 °F 93% 29.62 in 8.0 mi Calm Calm - N/A   Clear
10:53 PM 46.0 °F 42.5 °F 43.0 °F 89% 29.60 in 9.0 mi South 6.9 mph - N/A   Partly Cloudy
11:53 PM 45.0 °F 41.2 °F 42.1 °F 90% 29.58 in 9.0 mi South 6.9 mph - N/A   Mostly Cloudy